Flag for Poland Weather past 2 weeks in Koszalin, Poland

Now
77 °F

Sunny.


Feels Like: 79 °F
Forecast: 62 / 76 °F
Wind: 5 mph from North

Location: Koszalin

Current Time: Jul 22, 2014 at 7:50:26 PM

Latest Report: Jul 22, 2014 at 6:00 PM


Visibility: 19 mi

Pressure: 30.08 "Hg

Humidity: 55%

Dew point: 60 °F

Location of KoszalinLocation

Historic Weather in Koszalin — Graph

°F

Koszalin temperature yesterday

Maximum temperature yesterday: 79 °F (at 12:00 PM)
Minimum temperature yesterday: 60 °F (at 3:00 AM)
Average temperature yesterday: 69 °F

Past Weeks' High & Low Weather Summary

 TemperatureHumidityPressure
High86 °F (Jul 9, 3:00 PM)95% (Jul 8, 6:00 AM)30.22 "Hg (Jul 8, 6:00 AM)
Low53 °F (Jul 18, 5:00 AM)29% (Jul 10, 2:00 PM)29.70 "Hg (Jul 13, 8:00 AM)
Average68 °F68%29.96 "Hg
* Reported Jul 7 8:00 PM — Jul 22 6:00 PM, Koszalin, Weather by CustomWeather, © 2014

Note: Actual official high and low records may vary slightly from our data, if they occured in-between our weather recording intervals... More about our weather records

Advertising

Koszalin weather history for previous 24 hours

 ConditionsComfort  
Time TempWeatherWind HumidityBarometerVisibility
6:00 PM
Jul 22
77 °FSunny.5 mph55%30.08 "Hg19 mi
5:00 PM77 °FPassing clouds.5 mph57%30.08 "Hg19 mi
4:00 PM77 °FPassing clouds.7 mph51%30.07 "Hg19 mi
3:00 PM79 °FPassing clouds.6 mph51%30.07 "Hg19 mi
2:00 PM78 °FPassing clouds.6 mph55%30.08 "Hg16 mi
1:00 PM77 °FPassing clouds.6 mph56%30.08 "Hg22 mi
12:00 PM81 °FPassing clouds.3 mph40%30.08 "Hg19 mi
11:00 AM79 °FSunny.3 mph45%30.08 "Hg19 mi
10:00 AM76 °FSunny.3 mph56%30.07 "Hg19 mi
9:00 AM72 °FSunny.2 mph72%30.06 "Hg19 mi
8:00 AM65 °FFog.2 mph95%30.07 "Hg9 mi
7:00 AM63 °FFog.1 mph95%30.05 "Hg1 mi
6:00 AM61 °FFog.1 mph95%30.04 "Hg0 mi
5:00 AM61 °FFog.1 mph95%30.03 "Hg0 mi
3:00 AM61 °FFog.2 mph94%30.01 "Hg4 mi
2:00 AM61 °FFog.2 mph93%30.02 "Hg4 mi
1:00 AM60 °FFog.1 mph91%30.01 "Hg6 mi
12:00 AM62 °FClear.2 mph88%30.01 "Hg13 mi
11:00 PM
Jul 21
64 °FPassing clouds.1 mph85%30.01 "Hg19 mi
10:00 PM65 °FPassing clouds.2 mph81%29.99 "Hg25 mi
9:00 PM67 °FPassing clouds.3 mph75%29.98 "Hg25 mi
8:00 PM70 °FPassing clouds.5 mph69%29.97 "Hg22 mi
7:00 PM72 °FPassing clouds.5 mph65%29.96 "Hg19 mi
Weather by CustomWeather, © 2014

See weather overviewHow to use our weather pages